AAL404 SVMI-TTPP

Flight info

Callsign AAL404
Flight time 0h 51m
Altitude 29000
Route SOSKA2 CBC UP671 MEGIR DCT SHARK
Aircraft MD83/M-SDFGIRWY/S

Departure

Time 2026-04-30 14:11
Airport Maiquetía Simón Bolívar International Airport (SVMI)

Arrival

Time 2026-04-30 15:03
Airport Piarco International Airport (TTPP)
Time Latitude Longitude Altitude Speed Heading
2026-04-30 13:58 10.59816 -67.00969 237 ft 0 kts 178°
2026-04-30 14:02 10.59823 -67.00969 237 ft 4 kts 178°
2026-04-30 14:02 10.59850 -67.00970 237 ft 4 kts 177°
2026-04-30 14:02 10.59876 -67.00973 237 ft 4 kts 179°
2026-04-30 14:03 10.59894 -67.00966 237 ft 4 kts 219°
2026-04-30 14:03 10.59906 -67.00948 237 ft 4 kts 264°
2026-04-30 14:03 10.59906 -67.00926 236 ft 1 kts 268°
2026-04-30 14:03 10.59907 -67.00921 236 ft 0 kts 268°
2026-04-30 14:06 10.59903 -67.00988 237 ft 6 kts 264°
2026-04-30 14:07 10.59901 -67.01061 239 ft 10 kts 268°
2026-04-30 14:07 10.59899 -67.01130 240 ft 9 kts 269°
2026-04-30 14:07 10.59897 -67.01191 241 ft 8 kts 274°
2026-04-30 14:08 10.59963 -67.01235 242 ft 11 kts 351°
2026-04-30 14:08 10.60062 -67.01243 242 ft 15 kts 359°
2026-04-30 14:08 10.60176 -67.01247 239 ft 12 kts 357°
2026-04-30 14:09 10.60263 -67.01250 239 ft 12 kts 356°
2026-04-30 14:09 10.60314 -67.01254 240 ft 0 kts 357°
2026-04-30 14:09 10.60341 -67.01255 241 ft 7 kts 356°
2026-04-30 14:10 10.60382 -67.01233 242 ft 8 kts 83°
2026-04-30 14:10 10.60385 -67.01205 241 ft 1 kts 83°
2026-04-30 14:10 10.60389 -67.01081 238 ft 48 kts 89°
2026-04-30 14:10 10.60406 -67.00484 229 ft 117 kts 88°
2026-04-30 14:11 10.60442 -66.99467 245 ft 166 kts 87°
2026-04-30 14:11 10.60511 -66.98335 888 ft 163 kts 86°
2026-04-30 14:11 10.60631 -66.97090 1025 ft 195 kts 82°
2026-04-30 14:11 10.60839 -66.95797 1794 ft 175 kts 80°
2026-04-30 14:12 10.61085 -66.94468 1830 ft 214 kts 80°
2026-04-30 14:12 10.61374 -66.92889 2099 ft 237 kts 80°
2026-04-30 14:12 10.61675 -66.91182 2553 ft 253 kts 81°
2026-04-30 14:12 10.61878 -66.90011 2990 ft 255 kts 81°
2026-04-30 14:13 10.62296 -66.87636 3909 ft 262 kts 81°
2026-04-30 14:13 10.62622 -66.85798 4657 ft 264 kts 81°
2026-04-30 14:13 10.62947 -66.83954 5337 ft 269 kts 81°
2026-04-30 14:13 10.63280 -66.82071 6017 ft 272 kts 81°
2026-04-30 14:14 10.63620 -66.80159 6597 ft 278 kts 81°
2026-04-30 14:14 10.63964 -66.78213 7240 ft 281 kts 81°
2026-04-30 14:14 10.64313 -66.76239 7850 ft 286 kts 81°
2026-04-30 14:14 10.64667 -66.74241 8447 ft 289 kts 81°
2026-04-30 14:15 10.65027 -66.72211 8972 ft 295 kts 81°
2026-04-30 14:15 10.65394 -66.70151 9560 ft 297 kts 81°
2026-04-30 14:15 10.65762 -66.68082 10189 ft 297 kts 81°
2026-04-30 14:15 10.66130 -66.65998 10638 ft 305 kts 81°
2026-04-30 14:16 10.66511 -66.63829 10825 ft 320 kts 81°
2026-04-30 14:16 10.66907 -66.61570 10912 ft 337 kts 81°
2026-04-30 14:16 10.67328 -66.59154 10964 ft 355 kts 81°
2026-04-30 14:16 10.67763 -66.56643 10981 ft 364 kts 81°
2026-04-30 14:17 10.68199 -66.54112 10985 ft 364 kts 81°
2026-04-30 14:17 10.68637 -66.51567 10994 ft 364 kts 81°
2026-04-30 14:17 10.69074 -66.49030 11012 ft 364 kts 81°
2026-04-30 14:17 10.69515 -66.46469 11297 ft 371 kts 81°
2026-04-30 14:18 10.69959 -66.43888 11928 ft 370 kts 81°
2026-04-30 14:18 10.70400 -66.41324 12655 ft 366 kts 81°
2026-04-30 14:18 10.71286 -66.36185 13592 ft 373 kts 81°
2026-04-30 14:19 10.72042 -66.31819 14375 ft 380 kts 81°
2026-04-30 14:19 10.72502 -66.29166 14867 ft 382 kts 81°
2026-04-30 14:19 10.72967 -66.26488 15332 ft 387 kts 81°
2026-04-30 14:20 10.73436 -66.23782 15817 ft 390 kts 81°
2026-04-30 14:20 10.74062 -66.20163 16488 ft 394 kts 81°
2026-04-30 14:20 10.74866 -66.15526 17325 ft 400 kts 81°
2026-04-30 14:21 10.75353 -66.12724 17755 ft 404 kts 81°
2026-04-30 14:21 10.75627 -66.09874 18164 ft 407 kts 97°
2026-04-30 14:21 10.73034 -66.04955 19092 ft 409 kts 138°
2026-04-30 14:22 10.70714 -66.03265 19488 ft 414 kts 152°
2026-04-30 14:22 10.65984 -65.99962 20287 ft 420 kts 126°
2026-04-30 14:22 10.64531 -65.97379 20724 ft 421 kts 118°
2026-04-30 14:23 10.60445 -65.93123 21396 ft 428 kts 140°
2026-04-30 14:23 10.57313 -65.88047 22097 ft 436 kts 102°
2026-04-30 14:24 10.56972 -65.81851 22805 ft 444 kts 90°
2026-04-30 14:24 10.57038 -65.78703 23120 ft 447 kts 89°
2026-04-30 14:25 10.57142 -65.72349 23850 ft 452 kts 91°
2026-04-30 14:25 10.57109 -65.65915 24469 ft 457 kts 91°
2026-04-30 14:26 10.57020 -65.59455 25142 ft 462 kts 91°
2026-04-30 14:26 10.56977 -65.56173 25445 ft 464 kts 91°
2026-04-30 14:26 10.56909 -65.49579 26032 ft 469 kts 91°
2026-04-30 14:27 10.56881 -65.46252 26372 ft 471 kts 91°
2026-04-30 14:27 10.56854 -65.42922 26686 ft 472 kts 91°
2026-04-30 14:27 10.56827 -65.39586 27051 ft 472 kts 91°
2026-04-30 14:28 10.56770 -65.32965 27940 ft 468 kts 90°
2026-04-30 14:28 10.56739 -65.29660 28381 ft 467 kts 90°
2026-04-30 14:28 10.56707 -65.26368 28705 ft 467 kts 90°
2026-04-30 14:28 10.56674 -65.23052 28856 ft 471 kts 90°
2026-04-30 14:29 10.56550 -65.10018 28944 ft 456 kts 90°
2026-04-30 14:31 10.56383 -64.93957 28943 ft 458 kts 90°
2026-04-30 14:31 10.56281 -64.84265 28943 ft 459 kts 90°
2026-04-30 14:32 10.56178 -64.74562 28943 ft 456 kts 90°
2026-04-30 14:33 10.56100 -64.68119 28943 ft 456 kts 90°
2026-04-30 14:33 10.55992 -64.58440 28943 ft 458 kts 90°
2026-04-30 14:34 10.55911 -64.51956 28943 ft 458 kts 90°
2026-04-30 14:34 10.55828 -64.45488 28943 ft 457 kts 90°
2026-04-30 14:35 10.55713 -64.35849 28943 ft 456 kts 90°
2026-04-30 14:36 10.55637 -64.29406 28943 ft 456 kts 90°
2026-04-30 14:36 10.55561 -64.22961 28944 ft 456 kts 90°
2026-04-30 14:37 10.55480 -64.16513 28943 ft 456 kts 90°
2026-04-30 14:37 10.55465 -64.15468 28943 ft 456 kts 90°
2026-04-30 14:39 10.55122 -63.90259 28943 ft 456 kts 90°
2026-04-30 14:39 10.55041 -63.83823 28943 ft 455 kts 90°
2026-04-30 14:40 10.54905 -63.74158 28943 ft 455 kts 90°
2026-04-30 14:40 10.54805 -63.67722 28943 ft 455 kts 91°
2026-04-30 14:41 10.54708 -63.61323 28943 ft 455 kts 91°
2026-04-30 14:41 10.54613 -63.54881 28943 ft 456 kts 91°
2026-04-30 14:42 10.54519 -63.48445 28944 ft 455 kts 91°
2026-04-30 14:42 10.54420 -63.42005 28943 ft 455 kts 91°
2026-04-30 14:43 10.54337 -63.36654 28944 ft 455 kts 91°
2026-04-30 14:43 10.54216 -63.29134 28946 ft 455 kts 91°
2026-04-30 14:44 10.54129 -63.23784 28950 ft 455 kts 91°
2026-04-30 14:44 10.54027 -63.17352 28951 ft 455 kts 91°
2026-04-30 14:45 10.53923 -63.10911 28951 ft 456 kts 91°
2026-04-30 14:45 10.53819 -63.04474 28951 ft 455 kts 91°
2026-04-30 14:46 10.53714 -62.98036 28960 ft 455 kts 91°
2026-04-30 14:46 10.53609 -62.91599 28951 ft 456 kts 91°
2026-04-30 14:47 10.53498 -62.85165 28951 ft 456 kts 91°
2026-04-30 14:47 10.53381 -62.78763 28887 ft 457 kts 91°
2026-04-30 14:48 10.53322 -62.75505 28366 ft 460 kts 91°
2026-04-30 14:48 10.53268 -62.72274 27787 ft 454 kts 91°
2026-04-30 14:48 10.53216 -62.69086 27145 ft 449 kts 92°
2026-04-30 14:48 10.53166 -62.65930 26455 ft 445 kts 92°
2026-04-30 14:49 10.53116 -62.62800 25734 ft 442 kts 92°
2026-04-30 14:49 10.53063 -62.59684 24983 ft 440 kts 92°
2026-04-30 14:49 10.53007 -62.56586 24231 ft 437 kts 93°
2026-04-30 14:49 10.52952 -62.53515 23480 ft 434 kts 93°
2026-04-30 14:50 10.52830 -62.47425 22022 ft 427 kts 93°
2026-04-30 14:50 10.52765 -62.44425 21315 ft 423 kts 93°
2026-04-30 14:51 10.52639 -62.38546 19927 ft 415 kts 92°
2026-04-30 14:51 10.52581 -62.35627 19254 ft 411 kts 92°
2026-04-30 14:51 10.52474 -62.29873 17898 ft 403 kts 91°
2026-04-30 14:52 10.52423 -62.27037 17226 ft 399 kts 91°
2026-04-30 14:52 10.52328 -62.21460 15925 ft 390 kts 91°
2026-04-30 14:52 10.52282 -62.18722 15280 ft 385 kts 91°
2026-04-30 14:53 10.52188 -62.13345 14022 ft 376 kts 91°
2026-04-30 14:53 10.52139 -62.10703 13409 ft 371 kts 91°
2026-04-30 14:54 10.52026 -62.05539 12198 ft 360 kts 92°
2026-04-30 14:54 10.51913 -62.00517 10998 ft 352 kts 91°
2026-04-30 14:55 10.51817 -61.95696 10332 ft 329 kts 91°
2026-04-30 14:55 10.51775 -61.93423 10175 ft 314 kts 91°
2026-04-30 14:55 10.51698 -61.89170 9902 ft 287 kts 91°
2026-04-30 14:56 10.52060 -61.85240 9355 ft 275 kts 75°
2026-04-30 14:56 10.53227 -61.81536 8717 ft 279 kts 72°
2026-04-30 14:57 10.53827 -61.79652 8333 ft 280 kts 73°
2026-04-30 14:57 10.54958 -61.75858 7490 ft 280 kts 74°
2026-04-30 14:58 10.56022 -61.72067 6650 ft 278 kts 75°
2026-04-30 14:58 10.56545 -61.70182 6211 ft 276 kts 75°
2026-04-30 14:58 10.57583 -61.66468 5392 ft 272 kts 75°
2026-04-30 14:59 10.58620 -61.62790 4583 ft 269 kts 75°
2026-04-30 15:00 10.59623 -61.57336 3584 ft 254 kts 88°
2026-04-30 15:00 10.59458 -61.53867 3152 ft 234 kts 88°
2026-04-30 15:01 10.59521 -61.50668 2981 ft 207 kts 90°
2026-04-30 15:01 10.59523 -61.49279 2883 ft 186 kts 90°
2026-04-30 15:01 10.59518 -61.46795 2349 ft 180 kts 91°
2026-04-30 15:02 10.59510 -61.45563 2032 ft 173 kts 91°
2026-04-30 15:02 10.59520 -61.44370 1902 ft 162 kts 91°
2026-04-30 15:03 10.59596 -61.42264 12 ft 0 kts
2026-04-30 15:05 10.59965 -61.33998 17 ft 0 kts